NSTUPLCH

Guest
Details From NSTU - Pago Pago
To PLCH - Cassidy International
Flight Number -
Tags generated
Created
Modified
Stats Distance 1,392 nm / 2,579 km
Max Altitude 35,000 ft / 10,668 m
Waypoints 6
Social Downloads 2
Likes 0
Share VATSIM

Download

Looking for another format? Having issues loading an existing format? Contact us
Advertisement - Login to hide

Notes

Basic altitude profile: - Ascent Rate: 2500ft/min - Ascent Speed: 250kts - Cruise Altitude: 35000ft - Cruise Speed: 420kts - Descent Rate: 1500ft/min - Descent Speed: 250kts Options: - Use NATs: yes - Use PACOTS: yes - Use low airways: yes - Use high airways: yes

Route

NSTU DARMA B577 QUIGG PLCH

ID Type Via Altitude Latitude Longitude Leg Dist Tot Dist Heading (true) Name
O NSTU APT - 0 ft / 0 m -14.33006˚ -170.71024˚ - 0 nm - Pago Pago
DARMA FIX - 35,000 ft / 10,668 m -13.15339˚ -169.49556˚ 100 nm 100 nm 45° / 45° -
SAPIX FIX B577 (AWY-HI) 35,000 ft / 10,668 m -8.62000˚ -165.00000˚ 379 nm 480 nm 45° / 44° -
PASSA FIX B577 (AWY-HI) 35,000 ft / 10,668 m -5.00000˚ -161.52500˚ 300 nm 780 nm 44° / 43° -
QUIGG FIX B577 (AWY-HI) 23,600 ft / 7,193 m 1.05944˚ -155.76472˚ 501 nm 1282 nm 44° / 43° -
O PLCH APT - 0 ft / 0 m 1.98627˚ -157.34991˚ 110 nm 1392 nm 300° / 300° Cassidy International

Altitude Profile

Advertisement - Login to hide

Weather


0- 5 10 15 20 25 30 35+ Temperature / ° C

Clouds and Precipitation
Forecast for 2018-05-22 06:00 UTC. Updated 3 hours ago

Ground ~20,000 ft ~40,000 ft Winds

NSTU

Details ICAO NSTU (PPG)
Name Pago Pago
Region American Samoa
Timezone Unknown (UTC+0.0)
Stats Elevation 0 ft / 0 m (AMSL)
Location -14.330060° -170.710244°
Runways 2
Magnetic Variation 11.789° E

METAR

NSTU 220750Z 12010KT 10SM SCT017 BKN037 28/26 A2989 RMK SLP122 T02810260

Decode

TAF

TAF NSTU 220529Z 2206/2306 12011KT P6SM SCT020 SCT040

Decode

Departure Runways

ID Width Length Bearing (true) Bearing (mag) Surface Threshold Offset Overrun Length
05 151 ft / 46 m 10,007 ft / 3,050 m 60.00° 48.21° Asphalt 1,001 ft / 305 m 413 ft / 126 m
08 98 ft / 30 m 3,907 ft / 1,191 m 89.93° 78.14° Asphalt 0 ft / 0 m 371 ft / 113 m
23 151 ft / 46 m 10,007 ft / 3,050 m 240.00° 228.21° Asphalt 784 ft / 239 m 226 ft / 69 m
26 98 ft / 30 m 3,907 ft / 1,191 m 269.93° 258.14° Asphalt 112 ft / 34 m 0 ft / 0 m

PLCH

Details ICAO PLCH (CXI)
Name Cassidy International
Region Kiribati (Line Islands)
Timezone Pacific/Kiritimati (UTC+14.0)
Stats Elevation 5 ft / 2 m (AMSL)
Location 1.986270° -157.349914°
Runways 1
Magnetic Variation 9.043° E

METAR

PLCH 220800Z 35006KT 9999 FEW018 SCT040 26/25 Q1010

Decode

TAF

TAF PLCH 220522Z 2206/2306 12010KT 9999 FEW020

Decode

Destination Runways

ID Width Length Bearing (true) Bearing (mag) Surface Threshold Offset Overrun Length
08 98 ft / 30 m 6,899 ft / 2,103 m 90.00° 80.96° Asphalt 0 ft / 0 m 0 ft / 0 m
26 98 ft / 30 m 6,899 ft / 2,103 m 270.00° 260.96° Asphalt 0 ft / 0 m 0 ft / 0 m

Popular Alternatives